"Timestamp","TZ","WindDir_Mean (deg)","WindSpd_Mean (km/h)","WindSpd_Min (km/h)","WindSpd_Max (km/h)","Temp_Mean (deg)","RH_Mean (%)","MSLP_Mean (hPa)","Rain_Acc (mm)","Rain_Intensity (mm/h)","Hail_Acc (hits/cm2)","Hail_Intensity (hits/cm2hr)","Solar_Mean (W/m2)"
2020/02/28 00:00:00.010,n,247,2.52,1.44,3.24,22.8,79.4,1009.02,0,0,0,0,0.02697
2020/02/28 00:01:00.000,n,331,2.52,2.16,2.88,22.8,79.4,1009.02,0,0,0,0,0.020866
2020/02/28 00:02:00.000,n,246,2.16,1.8,2.16,22.8,79.4,1009.12,0,0,0,0,0.028725
2020/02/28 00:03:00.000,n,256,2.16,2.16,2.52,22.8,79.2,1009.12,0,0,0,0,0.024376
2020/02/28 00:04:00.000,n,247,1.8,1.44,2.16,22.7,79.2,1009.12,0,0,0,0,0.02697
2020/02/28 00:05:00.000,n,306,1.44,1.08,2.16,22.7,79.3,1009.12,0,0,0,0,0.024376
2020/02/28 00:06:00.009,n,299,1.44,1.08,2.16,22.7,79.2,1009.12,0,0,0,0,0.023499
2020/02/28 00:07:00.006,n,223,3.24,2.88,3.6,22.7,79,1009.12,0,0,0,0,0.026093
2020/02/28 00:08:00.003,n,244,3.6,3.6,3.96,22.7,78.6,1009.12,0,0,0,0,0.026093
2020/02/28 00:09:00.001,n,266,4.68,4.32,4.68,22.7,78.8,1009.12,0,0,0,0,0.026093
2020/02/28 00:10:00.000,n,275,3.6,3.24,3.6,22.7,78.8,1009.12,0,0,0,0,0.02697
2020/02/28 00:11:00.000,n,275,2.16,1.44,2.52,22.7,79.1,1009.12,0,0,0,0,0.031319
2020/02/28 00:12:00.000,n,253,3.24,3.24,3.24,22.7,79.1,1009.02,0,0,0,0,0.033112
2020/02/28 00:13:00.003,n,174,0.72,0,1.8,22.7,79.1,1009.02,0,0,0,0,0.033112
2020/02/28 00:14:00.001,n,331,0.36,0,0.72,22.7,79.1,1009.02,0,0,0,0,0.034828
2020/02/28 00:15:00.000,n,339,0.72,0.36,1.8,22.7,79.2,1009.02,0,0,0,0,0.034828
2020/02/28 00:16:00.011,n,17,1.44,1.08,1.8,22.7,79,1009.02,0,0,0,0,0.033112
2020/02/28 00:17:00.008,n,321,1.08,0.72,1.44,22.7,79.1,1009.02,0,0,0,0,0.031319
2020/02/28 00:18:00.005,n,275,2.52,1.8,3.24,22.7,79.6,1008.92,0,0,0,0,0.031319
2020/02/28 00:19:00.000,n,333,2.16,1.44,2.88,22.7,79.4,1009.02,0,0,0,0,0.031319
2020/02/28 00:20:00.000,n,321,1.44,1.08,2.16,22.7,79.2,1009.02,0,0,0,0,0.030479
2020/02/28 00:21:00.000,n,237,3.96,3.6,4.68,22.7,79.2,1008.92,0,0,0,0,0.030479
2020/02/28 00:22:00.000,n,257,5.4,4.68,6.48,22.7,79.6,1008.92,0,0,0,0,0.031319
2020/02/28 00:23:00.007,n,270,4.32,3.96,4.68,22.8,79.8,1008.92,0,0,0,0,0.031319
2020/02/28 00:24:00.005,n,278,1.8,1.44,2.16,22.7,79.5,1009.02,0,0,0,0,0.030479
2020/02/28 00:25:00.003,n,299,2.52,1.8,3.24,22.7,79.6,1008.92,0,0,0,0,0.031319
2020/02/28 00:26:00.001,n,220,2.88,2.88,3.24,22.7,79.6,1008.92,0,0,0,0,0.033112
2020/02/28 00:27:00.014,n,6,1.08,0.72,1.44,22.7,79.8,1008.92,0,0,0,0,0.033112
2020/02/28 00:28:00.000,n,249,2.88,1.44,3.96,22.7,79.7,1008.92,0,0,0,0,0.027885
2020/02/28 00:29:00.000,n,252,3.24,3.24,3.6,22.7,79.7,1008.92,0,0,0,0,0.028725
2020/02/28 00:30:00.000,n,252,2.52,1.08,4.32,22.7,79.7,1008.92,0,0,0,0,0.030479
2020/02/28 00:31:00.004,n,244,3.6,3.24,4.32,22.7,79.8,1008.92,0,0,0,0,0.030479
2020/02/28 00:32:00.001,n,259,4.32,3.96,4.32,22.7,79.9,1008.82,0,0,0,0,0.032196
2020/02/28 00:33:00.000,n,244,5.4,5.04,5.4,22.6,80.1,1008.82,0,0,0,0,0.030479
2020/02/28 00:34:00.010,n,247,5.4,5.04,5.76,22.6,80.3,1008.82,0,0,0,0,0.033951
2020/02/28 00:35:00.008,n,254,6.12,5.76,6.48,22.7,80.1,1008.82,0,0,0,0,0.028725
2020/02/28 00:36:00.004,n,257,5.4,3.24,6.12,22.6,80.1,1008.72,0,0,0,0,0.027885
2020/02/28 00:37:00.002,n,265,6.12,5.76,6.12,22.7,80.1,1008.72,0,0,0,0,0.032196
2020/02/28 00:38:00.000,n,265,6.12,6.12,6.48,22.6,79.8,1008.72,0,0,0,0,0.028725
2020/02/28 00:39:00.000,n,265,5.4,5.04,5.76,22.6,79.7,1008.72,0,0,0,0,0.02697
2020/02/28 00:40:00.000,n,265,7.2,6.84,7.56,22.6,79.7,1008.72,0,0,0,0,0.030479
2020/02/28 00:41:00.007,n,260,8.28,7.92,8.64,22.6,80.8,1008.72,0,0,0,0,0.030479
2020/02/28 00:42:00.005,n,276,7.56,6.48,9,22.7,81.5,1008.72,0,0,0,0,0.024376
2020/02/28 00:43:00.001,n,273,7.92,7.2,10.440002,22.8,80.5,1008.72,0,0,0,0,0.029602
2020/02/28 00:44:00.000,n,269,6.12,5.4,7.2,22.7,79.5,1008.72,0,0,0,0,0.02697
2020/02/28 00:45:00.011,n,262,5.04,4.68,6.12,22.6,79.5,1008.72,0,0,0,0,0.029602
2020/02/28 00:46:00.000,n,256,4.68,3.96,5.04,22.6,79.5,1008.82,0,0,0,0,0.028725
2020/02/28 00:47:00.000,n,243,4.68,4.68,5.04,22.6,79.9,1008.82,0,0,0,0,0.028725
2020/02/28 00:48:00.002,n,198,2.88,2.52,3.24,22.6,79.8,1008.82,0,0,0,0,0.027885
2020/02/28 00:49:00.000,n,187,2.88,2.52,2.88,22.6,79.8,1008.82,0,0,0,0,0.02697
2020/02/28 00:50:00.000,n,238,2.16,1.8,2.52,22.6,79.7,1008.82,0,0,0,0,0.030479
2020/02/28 00:51:00.000,n,216,1.8,1.8,2.16,22.6,79.6,1008.82,0,0,0,0,0.02697
2020/02/28 00:52:00.008,n,232,1.8,1.08,2.52,22.5,79.5,1008.82,0,0,0,0,0.02697
2020/02/28 00:53:00.006,n,245,2.88,2.16,3.24,22.5,79.6,1008.72,0,0,0,0,0.02697
2020/02/28 00:54:00.002,n,222,3.96,3.6,4.68,22.5,79.7,1008.72,0,0,0,0,0.024376
2020/02/28 00:55:00.000,n,221,3.24,2.88,3.96,22.5,79.7,1008.72,0,0,0,0,0.027885
2020/02/28 00:56:00.000,n,218,3.6,3.24,3.96,22.5,79.8,1008.72,0,0,0,0,0.028725
2020/02/28 00:57:00.000,n,264,3.6,3.24,4.68,22.5,79.5,1008.62,0,0,0,0,0.026131
2020/02/28 00:58:00.000,n,253,2.52,2.16,2.52,22.5,79.4,1008.62,0,0,0,0,0.026131
2020/02/28 00:59:00.006,n,279,5.04,4.68,5.04,22.5,79.4,1008.62,0,0,0,0,0.023537
2020/02/28 01:00:00.005,n,285,3.24,2.52,4.68,22.5,80.2,1008.62,0,0,0,0,0.026131
2020/02/28 01:01:00.001,n,242,3.96,3.24,4.32,22.6,80.1,1008.52,0,0,0,0,0.025253
2020/02/28 01:02:00.014,n,247,3.6,3.6,4.32,22.6,80.3,1008.52,0,0,0,0,0.030441
2020/02/28 01:03:00.011,n,227,2.88,2.52,3.6,22.6,80.4,1008.52,0,0,0,0,0.02697
2020/02/28 01:04:00.000,n,236,2.52,2.16,2.52,22.6,79.8,1008.52,0,0,0,0,0.033035
2020/02/28 01:05:00.000,n,249,1.8,1.44,2.52,22.6,80,1008.52,0,0,0,0,0.026093
2020/02/28 01:06:00.004,n,324,0.72,0.36,1.08,22.6,80.6,1008.42,0,0,0,0,0.037422
2020/02/28 01:07:00.001,n,209,1.08,0.72,1.44,22.6,80.4,1008.42,0,0,0,0,0.027847
2020/02/28 01:08:00.000,n,189,1.8,1.44,2.52,22.6,80.1,1008.42,0,0,0,0,0.031319
2020/02/28 01:09:00.000,n,146,2.88,2.52,3.24,22.6,80.1,1008.42,0,0,0,0,0.027847
2020/02/28 01:10:00.009,n,156,2.16,1.44,2.88,22.5,80.2,1008.42,0,0,0,0,0.031319
2020/02/28 01:11:00.006,n,149,3.96,2.16,5.4,22.5,80.2,1008.42,0,0,0,0,0.029564
2020/02/28 01:12:00.003,n,191,1.8,1.8,2.16,22.5,80.1,1008.32,0,0,0,0,0.030441
2020/02/28 01:13:00.000,n,97,2.16,1.44,2.52,22.5,80.3,1008.32,0,0,0,0,0.030441
2020/02/28 01:14:00.000,n,85,1.44,1.08,1.8,22.5,80.4,1008.32,0,0,0,0,0.032196
2020/02/28 01:15:00.000,n,71,1.8,1.44,2.16,22.5,80.5,1008.32,0,0,0,0,0.029564
2020/02/28 01:16:00.000,n,58,2.52,2.52,2.52,22.5,80.7,1008.22,0,0,0,0,0.032196
2020/02/28 01:17:00.004,n,84,2.16,2.16,2.88,22.5,80.9,1008.22,0,0,0,0,0.029564
2020/02/28 01:18:00.001,n,64,1.8,1.08,2.52,22.5,81,1008.22,0,0,0,0,0.026093
2020/02/28 01:19:00.000,n,122,1.8,1.44,2.16,22.5,81.1,1008.32,0,0,0,0,0.033913
2020/02/28 01:20:00.012,n,148,0.72,0.36,1.08,22.5,81.1,1008.32,0,0,0,0,0.029564
2020/02/28 01:21:00.010,n,140,3.24,2.88,3.24,22.5,81.3,1008.32,0,0,0,0,0.027847
2020/02/28 01:22:00.000,n,141,4.32,3.96,4.32,22.5,81.9,1008.32,0,0,0,0,0.032196
2020/02/28 01:23:00.000,n,148,3.6,3.24,3.6,22.5,81.9,1008.32,0,0,0,0,0.029564
2020/02/28 01:24:00.002,n,145,3.6,3.6,4.32,22.4,82,1008.32,0,0,0,0,0.030441
2020/02/28 01:25:00.000,n,138,3.96,3.96,4.68,22.4,82,1008.32,0,0,0,0,0.02697
2020/02/28 01:26:00.000,n,160,2.52,2.16,2.88,22.4,82.3,1008.32,0,0,0,0,0.024338
2020/02/28 01:27:00.010,n,131,2.52,2.16,2.88,22.4,82.6,1008.32,0,0,0,0,0.02697
2020/02/28 01:28:00.007,n,121,2.16,2.16,2.52,22.4,82.7,1008.32,0,0,0,0,0.025253
2020/02/28 01:29:00.003,n,143,1.8,1.44,2.52,22.4,82.7,1008.32,0,0,0,0,0.020866
2020/02/28 01:30:00.000,n,169,3.24,3.24,3.6,22.4,82.7,1008.32,0,0,0,0,0.022621
2020/02/28 01:31:00.000,n,164,2.16,1.44,2.88,22.4,82.8,1008.32,0,0,0,0,0.025253
2020/02/28 01:32:00.000,n,150,3.24,2.52,3.96,22.4,82.9,1008.32,0,0,0,0,0.02697
2020/02/28 01:33:00.000,n,182,5.04,4.32,6.12,22.3,82.9,1008.22,0,0,0,0,0.025253
2020/02/28 01:34:00.004,n,170,3.96,3.6,4.68,22.3,83,1008.32,0,0,0,0,0.024338
2020/02/28 01:35:00.001,n,171,3.96,3.6,5.04,22.3,83.1,1008.32,0,0,0,0,0.02346
2020/02/28 01:36:00.000,n,228,3.24,2.88,3.6,22.3,83.1,1008.32,0,0,0,0,0.029564
2020/02/28 01:37:00.011,n,186,2.88,2.16,3.24,22.3,83.1,1008.32,0,0,0,0,0.030441
2020/02/28 01:38:00.008,n,205,4.68,3.96,5.04,22.3,83.2,1008.32,0,0,0,0,0.021744
2020/02/28 01:39:00.005,n,247,1.8,1.44,2.16,22.3,83.2,1008.32,0,0,0,0,0.022621
2020/02/28 01:40:00.002,n,279,3.24,1.8,4.68,22.3,83.7,1008.32,0,0,0,0,0.025253
2020/02/28 01:41:00.000,n,244,2.88,2.16,3.24,22.3,83.5,1008.32,0,0,0,0,0.024338
2020/02/28 01:42:00.000,n,214,1.8,1.44,2.16,22.3,83.3,1008.32,0,0,0,0,0.02697
2020/02/28 01:43:00.000,n,210,2.52,2.16,2.88,22.3,83.5,1008.22,0,0,0,0,0.028687
2020/02/28 01:44:00.005,n,262,0.72,0.36,1.08,22.3,83.5,1008.22,0,0,0,0,0.024338
2020/02/28 01:45:00.002,n,254,1.8,1.44,2.16,22.3,83.5,1008.22,0,0,0,0,0.022621
2020/02/28 01:46:00.000,n,244,1.44,1.44,1.8,22.3,83.4,1008.22,0,0,0,0,0.020866
2020/02/28 01:47:00.013,n,199,1.8,1.44,1.8,22.3,83.5,1008.22,0,0,0,0,0.02697
2020/02/28 01:48:00.011,n,189,2.16,2.16,2.52,22.3,83.5,1008.22,0,0,0,0,0.026093
2020/02/28 01:49:00.000,n,257,0.72,0.72,0.72,22.3,83.6,1008.22,0,0,0,0,0.02346
2020/02/28 01:50:00.000,n,355,0.72,0.36,1.08,22.3,83.6,1008.22,0,0,0,0,0.021744
2020/02/28 01:51:00.000,n,199,1.8,1.44,1.8,22.3,83.6,1008.22,0,0,0,0,0.024338
2020/02/28 01:52:00.000,n,222,2.88,2.88,3.6,22.3,83.6,1008.22,0,0,0,0,0.020866
2020/02/28 01:53:00.000,n,229,2.52,2.16,2.52,22.3,83.7,1008.22,0,0,0,0,0.020027
2020/02/28 01:54:00.008,n,308,0.72,0.36,1.8,22.3,83.8,1008.22,0,0,0,0,0.024338
2020/02/28 01:55:00.002,n,114,0.72,0.36,1.08,22.3,83.8,1008.22,0,0,0,0,0.031319
2020/02/28 01:56:00.000,n,233,2.88,2.52,3.24,22.3,83.7,1008.22,0,0,0,0,0.031319
2020/02/28 01:57:00.013,n,159,1.44,0.36,1.44,22.3,83.7,1008.22,0,0,0,0,0.030441
2020/02/28 01:58:00.000,n,226,2.52,2.16,2.88,22.2,83.7,1008.22,0,0,0,0,0.033913
2020/02/28 01:59:00.000,n,222,1.44,0.72,1.8,22.2,83.8,1008.22,0,0,0,0,0.035629
2020/02/28 02:00:00.004,n,241,0.72,0.36,1.08,22.2,83.9,1008.22,0,0,0,0,0.035629
2020/02/28 02:01:00.001,n,319,1.08,0.72,1.44,22.2,83.9,1008.22,0,0,0,0,0.032196
2020/02/28 02:02:00.000,n,305,3.24,2.52,3.6,22.2,84.4,1008.22,0,0,0,0,0.033035
2020/02/28 02:03:00.000,n,278,3.24,2.52,3.96,22.3,84.1,1008.22,0,0,0,0,0.033913
2020/02/28 02:04:00.009,n,265,1.8,1.44,2.16,22.2,84,1008.22,0,0,0,0,0.03479
2020/02/28 02:05:00.006,n,255,2.88,2.52,3.24,22.2,84,1008.12,0,0,0,0,0.031319
2020/02/28 02:06:00.003,n,248,0.72,0.36,1.08,22.2,84.1,1008.12,0,0,0,0,0.030441
2020/02/28 02:07:00.000,n,239,1.44,0.36,2.16,22.2,84.1,1008.12,0,0,0,0,0.032196
2020/02/28 02:08:00.000,n,121,0.72,0.72,0.72,22.2,84.1,1008.12,0,0,0,0,0.028687
2020/02/28 02:09:00.000,n,277,0.72,0.72,1.08,22.2,84.2,1008.12,0,0,0,0,0.028687
2020/02/28 02:10:00.000,n,322,0.72,0.36,1.08,22.2,84.3,1008.12,0,0,0,0,0.030441
2020/02/28 02:11:00.005,n,272,1.08,0.36,1.44,22.2,84.3,1008.12,0,0,0,0,0.028687
2020/02/28 02:12:00.002,n,151,1.08,0.72,1.44,22.2,84.3,1008.12,0,0,0,0,0.032196
2020/02/28 02:13:00.000,n,129,0.72,0.36,1.44,22.2,84.2,1008.12,0,0,0,0,0.028687
2020/02/28 02:14:00.014,n,187,1.44,1.44,1.8,22.1,84.3,1008.12,0,0,0,0,0.031319
2020/02/28 02:15:00.011,n,218,1.8,1.8,2.16,22.1,84.2,1008.12,0,0,0,0,0.029564
2020/02/28 02:16:00.000,n,277,1.44,1.08,1.8,22.1,84.3,1008.12,0,0,0,0,0.033035
2020/02/28 02:17:00.000,n,268,1.8,1.44,2.16,22.1,84.3,1008.12,0,0,0,0,0.032196
2020/02/28 02:18:00.002,n,294,1.44,0.36,2.16,22.1,84.4,1008.12,0,0,0,0,0.029564
2020/02/28 02:19:00.000,n,206,1.44,0.72,1.8,22.1,84.5,1008.12,0,0,0,0,0.031319
2020/02/28 02:20:00.000,n,239,1.8,0.36,2.52,22.1,84.4,1008.12,0,0,0,0,0.026093
2020/02/28 02:21:00.000,n,279,2.16,1.08,3.24,22.1,84.5,1008.12,0,0,0,0,0.030441
2020/02/28 02:22:00.008,n,301,1.08,0.36,1.8,22.1,84.5,1008.12,0,0,0,0,0.029564
2020/02/28 02:23:00.005,n,274,2.16,1.8,2.88,22.1,84.6,1008.12,0,0,0,0,0.030441
2020/02/28 02:24:00.002,n,255,1.08,0.72,1.44,22.1,84.6,1008.12,0,0,0,0,0.029564
2020/02/28 02:25:00.000,n,237,2.52,1.8,2.52,22.1,84.4,1008.12,0,0,0,0,0.032196
2020/02/28 02:26:00.000,n,214,2.16,1.8,2.16,22.1,84.4,1008.12,0,0,0,0,0.031319
2020/02/28 02:27:00.000,n,234,2.16,1.8,2.52,22.1,84.4,1008.12,0,0,0,0,0.025215
2020/02/28 02:28:00.007,n,273,0.36,0.36,0.72,22.1,84.5,1008.12,0,0,0,0,0.029564
2020/02/28 02:29:00.004,n,262,1.44,1.08,1.44,22.1,84.5,1008.12,0,0,0,0,0.029564
2020/02/28 02:30:00.001,n,263,2.52,2.16,2.88,22.1,84.6,1008.02,0,0,0,0,0.031319
2020/02/28 02:31:00.000,n,210,1.8,1.8,1.8,22.1,84.4,1008.02,0,0,0,0,0.028687
2020/02/28 02:32:00.012,n,240,0.72,0.36,0.72,22,84.4,1008.02,0,0,0,0,0.025215
2020/02/28 02:33:00.008,n,195,3.6,2.88,3.96,22,84.6,1008.02,0,0,0,0,0.028687
2020/02/28 02:34:00.000,n,221,2.88,2.52,2.88,22,84.6,1008.02,0,0,0,0,0.033035
2020/02/28 02:35:00.003,n,174,3.24,2.52,3.6,22,84.7,1008.02,0,0,0,0,0.030441
2020/02/28 02:36:00.000,n,232,3.6,3.24,3.96,22,84.6,1007.92,0,0,0,0,0.028687
2020/02/28 02:37:00.000,n,235,1.8,1.44,2.16,22,84.6,1007.92,0,0,0,0,0.030441
2020/02/28 02:38:00.000,n,288,3.24,2.88,3.24,22,84.8,1007.92,0,0,0,0,0.026093
2020/02/28 02:39:00.007,n,270,2.16,1.8,2.52,22,84.8,1007.92,0,0,0,0,0.031319
2020/02/28 02:40:00.004,n,253,5.04,4.32,5.4,22.1,85.4,1007.92,0,0,0,0,0.028687
2020/02/28 02:41:00.001,n,251,5.04,3.96,6.12,22.1,85.7,1007.92,0,0,0,0,0.026093
2020/02/28 02:42:00.015,n,249,5.76,5.04,6.84,22.2,85.6,1007.92,0,0,0,0,0.028687
2020/02/28 02:43:00.000,n,276,8.28,6.48,9.72,22.2,85.6,1008.02,0,0,0,0,0.02697
2020/02/28 02:44:00.000,n,259,3.96,3.6,4.68,22.2,85,1008.02,0,0,0,0,0.028687
2020/02/28 02:45:00.000,n,280,2.52,1.8,3.24,22.2,85,1008.02,0,0,0,0,0.02697
2020/02/28 02:46:00.004,n,252,3.6,3.24,3.96,22.1,84.8,1008.02,0,0,0,0,0.025215
2020/02/28 02:47:00.001,n,246,3.96,3.6,4.32,22.1,84.6,1008.02,0,0,0,0,0.026093
2020/02/28 02:48:00.000,n,256,6.84,6.12,7.2,22,84.7,1008.02,0,0,0,0,0.031319
2020/02/28 02:49:00.011,n,256,6.12,5.4,6.12,22,84.9,1008.02,0,0,0,0,0.027809
2020/02/28 02:50:00.008,n,253,5.04,4.68,5.4,22,85,1008.02,0,0,0,0,0.026093
2020/02/28 02:51:00.006,n,254,3.96,3.24,4.68,22,84.5,1008.02,0,0,0,0,0.02697
2020/02/28 02:52:00.000,n,234,5.4,4.68,6.12,22,84.4,1008.02,0,0,0,0,0.026093
2020/02/28 02:53:00.000,n,253,7.2,6.12,7.56,21.9,84.3,1008.02,0,0,0,0,0.022621
2020/02/28 02:54:00.000,n,251,6.12,5.4,6.84,21.9,84.4,1008.02,0,0,0,0,0.025215
2020/02/28 02:55:00.000,n,265,7.2,6.12,7.56,21.9,84.4,1008.12,0,0,0,0,0.028687
2020/02/28 02:56:00.007,n,262,5.4,1.8,7.2,21.9,84.7,1008.12,0,0,0,0,0.027809
2020/02/28 02:57:00.004,n,246,9,8.28,9.72,21.9,84.5,1008.12,0,0,0,0,0.027809
2020/02/28 02:58:00.001,n,252,7.2,6.48,9,21.9,84.3,1008.12,0,0,0,0,0.022621
2020/02/28 02:59:00.000,n,247,9,8.64,9.36,21.9,84.3,1008.12,0,0,0,0,0.030441
2020/02/28 03:00:00.011,n,256,4.32,3.24,6.12,21.9,84.3,1008.12,0,0,0,0,0.022621
2020/02/28 03:01:00.000,n,262,4.68,4.32,5.04,21.8,84.5,1008.12,0,0,0,0,0.026093
2020/02/28 03:02:00.000,n,244,8.28,7.2,9.36,21.8,84.3,1008.12,0,0,0,0,0.026093
2020/02/28 03:03:00.004,n,253,5.76,5.04,7.2,21.8,84.2,1008.12,0,0,0,0,0.024338
2020/02/28 03:04:00.002,n,263,6.48,5.04,7.92,21.8,84.4,1008.12,0,0,0,0,0.026093
2020/02/28 03:05:00.000,n,261,4.68,4.32,6.12,21.8,84.2,1008.12,0,0,0,0,0.022621
2020/02/28 03:06:00.000,n,232,9,6.84,10.08,21.8,84.2,1008.12,0,0,0,0,0.021744
2020/02/28 03:07:00.010,n,231,5.4,5.04,5.76,21.8,84.2,1008.12,0,0,0,0,0.024338
2020/02/28 03:08:00.006,n,256,6.48,5.4,6.84,21.8,84.2,1008.12,0,0,0,0,0.024338
2020/02/28 03:09:00.004,n,254,6.12,5.04,7.2,21.8,84.2,1008.12,0,0,0,0,0.021744
2020/02/28 03:10:00.002,n,264,8.64,8.28,9.72,21.8,84.6,1008.12,0,0,0,0,0.020866
2020/02/28 03:11:00.000,n,260,5.4,4.68,8.64,21.9,84.6,1008.12,0,0,0,0,0.019112
2020/02/28 03:12:00.000,n,250,7.2,6.48,8.28,21.9,84.2,1008.12,0,0,0,0,0.022621
2020/02/28 03:13:00.000,n,258,6.12,5.4,7.2,21.8,84,1008.12,0,0,0,0,0.022621
2020/02/28 03:14:00.005,n,242,5.04,4.32,5.4,21.8,84,1008.12,0,0,0,0,0.022621
2020/02/28 03:15:00.003,n,265,5.04,4.32,5.4,21.8,84,1008.12,0,0,0,0,0.024338
2020/02/28 03:16:00.000,n,239,4.68,3.96,5.4,21.8,84.5,1008.12,0,0,0,0,0.019112
2020/02/28 03:17:00.012,n,259,5.4,5.04,6.12,21.9,84.6,1008.12,0,0,0,0,0.030479
2020/02/28 03:18:00.008,n,260,3.96,2.88,5.4,21.9,84.4,1008.12,0,0,0,0,0.031319
2020/02/28 03:19:00.000,n,288,7.56,6.84,9.36,21.9,84.4,1008.12,0,0,0,0,0.032196
2020/02/28 03:20:00.002,n,254,5.4,5.04,5.76,21.9,83.9,1008.12,0,0,0,0,0.033073
2020/02/28 03:21:00.000,n,259,4.32,3.96,4.68,21.9,83.9,1008.12,0,0,0,0,0.031319
2020/02/28 03:22:00.000,n,250,4.68,3.96,5.4,21.8,83.9,1008.12,0,0,0,0,0.033951
2020/02/28 03:23:00.010,n,255,4.68,1.8,7.2,21.8,84.3,1008.12,0,0,0,0,0.032196
2020/02/28 03:24:00.007,n,242,3.96,1.44,5.4,21.9,84.5,1008.12,0,0,0,0,0.030479
2020/02/28 03:25:00.004,n,268,9.72,9,10.440002,21.9,83.8,1008.02,0,0,0,0,0.034828
2020/02/28 03:26:00.001,n,232,4.32,3.24,5.76,21.8,83.9,1008.12,0,0,0,0,0.031319
2020/02/28 03:27:00.014,n,253,3.24,3.24,3.6,21.8,83.8,1008.02,0,0,0,0,0.033073
2020/02/28 03:28:00.000,n,276,5.04,4.68,5.4,21.8,84,1008.02,0,0,0,0,0.029602
2020/02/28 03:29:00.000,n,265,3.6,3.24,4.32,21.8,83.9,1008.02,0,0,0,0,0.030479
2020/02/28 03:30:00.000,n,251,5.76,4.32,6.84,21.8,84.1,1008.02,0,0,0,0,0.032196
2020/02/28 03:31:00.004,n,236,5.76,4.32,6.48,21.8,84,1008.02,0,0,0,0,0.030479
2020/02/28 03:32:00.001,n,268,6.84,6.12,8.28,21.8,84.4,1008.02,0,0,0,0,0.031319
2020/02/28 03:33:00.000,n,259,6.12,5.04,7.2,21.8,84,1008.02,0,0,0,0,0.032196
2020/02/28 03:34:00.011,n,265,2.16,1.8,2.88,21.8,83.8,1008.02,0,0,0,0,0.030479
2020/02/28 03:35:00.008,n,245,3.24,2.88,3.24,21.7,83.8,1008.02,0,0,0,0,0.033951
2020/02/28 03:36:00.006,n,276,2.16,1.8,2.52,21.7,84.6,1008.02,0,0,0,0,0.033073
2020/02/28 03:37:00.000,n,290,4.32,3.6,6.48,21.7,84.5,1008.02,0,0,0,0,0.029602
2020/02/28 03:38:00.000,n,233,3.6,3.6,4.32,21.8,84.1,1007.92,0,0,0,0,0.031319
2020/02/28 03:39:00.000,n,153,3.96,3.96,4.32,21.8,84.2,1007.92,0,0,0,0,0.023537
2020/02/28 03:40:00.000,n,277,3.24,2.52,4.32,21.7,84.2,1007.92,0,0,0,0,0.030479
2020/02/28 03:41:00.008,n,259,2.16,2.16,2.52,21.7,84.3,1007.92,0,0,0,0,0.02697
2020/02/28 03:42:00.005,n,238,5.76,4.68,7.56,21.7,84,1007.92,0,0,0,0,0.032196
2020/02/28 03:43:00.002,n,198,2.88,2.16,3.6,21.7,84,1007.92,0,0,0,0,0.033073
2020/02/28 03:44:00.000,n,263,5.76,3.6,6.84,21.7,84.3,1007.92,0,0,0,0,0.029602
2020/02/28 03:45:00.012,n,254,6.12,5.4,6.84,21.7,84.5,1007.92,0,0,0,0,0.027847
2020/02/28 03:46:00.000,n,270,8.64,7.56,11.16,21.8,84.5,1007.92,0,0,0,0,0.027847
2020/02/28 03:47:00.000,n,270,6.84,5.76,7.56,21.8,84.2,1007.92,0,0,0,0,0.028725
2020/02/28 03:48:00.003,n,258,8.28,6.84,9.36,21.7,84,1007.92,0,0,0,0,0.024376
2020/02/28 03:49:00.001,n,236,3.96,2.88,4.32,21.7,84,1007.92,0,0,0,0,0.022621
2020/02/28 03:50:00.000,n,260,5.4,4.32,6.12,21.7,84.1,1007.92,0,0,0,0,0.029602
2020/02/28 03:51:00.000,n,253,5.04,5.04,5.04,21.6,84.1,1007.92,0,0,0,0,0.026131
2020/02/28 03:52:00.008,n,196,2.16,1.8,2.88,21.6,84.3,1007.92,0,0,0,0,0.028725
2020/02/28 03:53:00.004,n,267,3.24,1.8,6.48,21.6,84.7,1007.92,0,0,0,0,0.02697
2020/02/28 03:54:00.002,n,236,3.96,3.6,4.32,21.7,84.5,1007.92,0,0,0,0,0.027847
2020/02/28 03:55:00.000,n,296,3.24,1.8,3.96,21.7,84.6,1007.92,0,0,0,0,0.027847
2020/02/28 03:56:00.000,n,238,1.44,1.08,1.8,21.7,84.6,1007.92,0,0,0,0,0.024376
2020/02/28 03:57:00.000,n,180,1.8,1.08,2.16,21.7,84.5,1007.92,0,0,0,0,0.027847
2020/02/28 03:58:00.005,n,266,2.88,2.16,3.24,21.7,85,1008.02,0,0,0,0,0.028725
2020/02/28 03:59:00.002,n,227,2.88,2.16,3.24,21.7,84.7,1008.02,0,0,0,0,0.027847
2020/02/28 04:00:00.000,n,267,2.88,1.8,2.88,21.7,84.6,1008.02,0,0,0,0,0.023537
2020/02/28 04:01:00.013,n,161,4.68,4.68,5.04,21.7,84.6,1008.02,0,0,0,0,0.028725
2020/02/28 04:02:00.010,n,299,1.44,1.08,2.16,21.6,84.6,1008.02,0,0,0,0,0.024376
2020/02/28 04:03:00.007,n,200,4.68,3.6,5.76,21.6,84.6,1008.02,0,0,0,0,0.024376
2020/02/28 04:04:00.000,n,156,2.16,1.44,3.24,21.6,84.6,1008.02,0,0,0,0,0.025253
2020/02/28 04:05:00.000,n,180,5.4,5.04,6.12,21.6,84.6,1008.02,0,0,0,0,0.021744
2020/02/28 04:06:00.000,n,194,3.6,2.88,3.6,21.6,84.6,1008.02,0,0,0,0,0.026131
2020/02/28 04:07:00.000,n,175,2.16,1.44,3.24,21.6,84.6,1008.02,0,0,0,0,0.024376
2020/02/28 04:08:00.008,n,211,1.44,0.36,2.52,21.6,84.7,1008.02,0,0,0,0,0.026131
2020/02/28 04:09:00.005,n,351,1.44,0.72,1.8,21.6,84.7,1008.02,0,0,0,0,0.028725
2020/02/28 04:10:00.002,n,264,6.12,5.76,6.84,21.6,84.6,1008.02,0,0,0,0,0.027847
2020/02/28 04:11:00.000,n,117,1.8,1.44,2.52,21.6,84.5,1008.02,0,0,0,0,0.026131
2020/02/28 04:12:00.013,n,263,1.8,1.44,2.16,21.6,84.7,1008.02,0,0,0,0,0.026131
2020/02/28 04:13:00.000,n,209,4.32,2.88,5.04,21.6,84.6,1008.02,0,0,0,0,0.020027
2020/02/28 04:14:00.000,n,246,6.48,5.4,7.56,21.6,84.7,1008.02,0,0,0,0,0.021744
2020/02/28 04:15:00.000,n,232,1.44,0.36,2.16,21.6,84.7,1008.02,0,0,0,0,0.024376
2020/02/28 04:16:00.003,n,337,1.08,0.36,1.44,21.6,84.7,1008.02,0,0,0,0,0.024376
2020/02/28 04:17:00.001,n,233,2.88,2.52,3.6,21.6,85,1008.02,0,0,0,0,0.026131
2020/02/28 04:18:00.000,n,275,3.96,3.6,3.96,21.7,84.8,1008.02,0,0,0,0,0.024376
2020/02/28 04:19:00.010,n,144,2.52,1.44,3.24,21.7,84.7,1008.02,0,0,0,0,0.02697
2020/02/28 04:20:00.009,n,151,2.52,2.16,3.6,21.6,84.7,1008.02,0,0,0,0,0.025253
2020/02/28 04:21:00.006,n,171,3.24,0.36,5.4,21.6,84.8,1008.02,0,0,0,0,0.02697
2020/02/28 04:22:00.000,n,178,4.32,3.24,5.04,21.6,84.8,1008.02,0,0,0,0,0.025253
2020/02/28 04:23:00.000,n,181,3.6,3.24,4.32,21.6,84.8,1008.02,0,0,0,0,0.025253
2020/02/28 04:24:00.000,n,204,4.32,3.6,5.4,21.7,85,1008.02,0,0,0,0,0.026131
2020/02/28 04:25:00.000,n,275,2.88,2.16,3.6,21.7,84.9,1008.02,0,0,0,0,0.027847
2020/02/28 04:26:00.007,n,178,1.8,1.44,2.16,21.7,85.1,1008.02,0,0,0,0,0.026131
2020/02/28 04:27:00.004,n,151,2.88,1.8,3.24,21.7,84.9,1008.02,0,0,0,0,0.025253
2020/02/28 04:28:00.001,n,229,1.8,0.36,2.52,21.7,84.9,1008.02,0,0,0,0,0.021744
2020/02/28 04:29:00.000,n,184,5.4,5.04,5.76,21.7,85,1008.02,0,0,0,0,0.025253
2020/02/28 04:30:00.013,n,178,3.96,3.6,4.32,21.7,85,1008.02,0,0,0,0,0.022621
2020/02/28 04:31:00.000,n,173,1.8,1.08,2.16,21.7,84.9,1008.02,0,0,0,0,0.024376
2020/02/28 04:32:00.000,n,150,2.52,1.8,3.24,21.6,85,1008.02,0,0,0,0,0.027847
2020/02/28 04:33:00.004,n,250,4.68,2.16,7.92,21.6,85,1008.02,0,0,0,0,0.02697
2020/02/28 04:34:00.001,n,188,1.08,0.36,1.44,21.7,85.2,1008.02,0,0,0,0,0.025253
2020/02/28 04:35:00.000,n,126,2.16,1.8,2.88,21.6,85.1,1008.02,0,0,0,0,0.026131
2020/02/28 04:36:00.000,n,122,2.16,0.36,3.6,21.6,85.1,1008.12,0,0,0,0,0.026131
2020/02/28 04:37:00.009,n,219,3.6,3.24,3.96,21.6,85.1,1008.12,0,0,0,0,0.020905
2020/02/28 04:38:00.006,n,270,0.72,0.36,1.08,21.6,85.2,1008.12,0,0,0,0,0.025253
2020/02/28 04:39:00.003,n,130,1.44,1.08,2.16,21.6,85.3,1008.22,0,0,0,0,0.023537
2020/02/28 04:40:00.001,n,211,1.08,0.36,2.16,21.6,85.3,1008.22,0,0,0,0,0.023537
2020/02/28 04:41:00.000,n,299,2.52,1.8,3.24,21.7,85.6,1008.22,0,0,0,0,0.022621
2020/02/28 04:42:00.000,n,263,5.04,2.52,5.76,21.7,85.9,1008.22,0,0,0,0,0.021744
2020/02/28 04:43:00.000,n,247,2.52,2.16,2.52,21.7,85.5,1008.22,0,0,0,0,0.023537
2020/02/28 04:44:00.005,n,230,1.44,1.08,1.8,21.7,85.4,1008.22,0,0,0,0,0.024376
2020/02/28 04:45:00.003,n,240,4.68,3.96,5.04,21.7,85.5,1008.22,0,0,0,0,0.020027
2020/02/28 04:46:00.001,n,245,5.4,5.04,5.4,21.7,85.3,1008.22,0,0,0,0,0.022621
2020/02/28 04:47:00.013,n,247,3.96,3.6,5.04,21.7,85.3,1008.22,0,0,0,0,0.022621
2020/02/28 04:48:00.010,n,237,2.16,2.16,2.52,21.6,85.3,1008.22,0,0,0,0,0.017395
2020/02/28 04:49:00.000,n,261,3.24,2.88,3.6,21.6,85.8,1008.22,0,0,0,0,0.020027
2020/02/28 04:50:00.000,n,265,5.76,4.68,6.84,21.7,85.7,1008.22,0,0,0,0,0.016556
2020/02/28 04:51:00.002,n,271,1.44,1.44,2.16,21.7,85.6,1008.32,0,0,0,0,0.021744
2020/02/28 04:52:00.000,n,278,7.2,6.48,8.28,21.7,85.6,1008.32,0,0,0,0,0.023537
2020/02/28 04:53:00.000,n,238,3.96,2.52,4.68,21.7,85.4,1008.32,0,0,0,0,0.022621
2020/02/28 04:54:00.009,n,249,3.6,3.24,3.96,21.6,85.4,1008.32,0,0,0,0,0.016556
2020/02/28 04:55:00.006,n,280,6.84,6.12,8.64,21.6,85.4,1008.32,0,0,0,0,0.024376